LDZALDDU

Guest
Details From LDZA - Zagreb
To LDDU - Dubrovnik
Flight Number -
Tags Generated
Created
Modified
Stats Distance 212 nm / 393 km
Max Altitude 0 ft / 0 m
Waypoints 2
Social Downloads 2
Likes 0
Share VATSIM

Download

Looking for another format? Having issues loading an existing format? Contact us
Advertisement - Login to hide

Notes

Generated

Route

LDZA LDDU

ID Type Via Altitude Latitude Longitude Leg Dist Tot Dist Heading (true) Name
O LDZA APT - 0 ft / 0 m 45.73188˚ 16.05197˚ - 0 nm - -
O LDDU APT - 0 ft / 0 m 42.56986˚ 18.24681˚ 212 nm 212 nm 153° / 154° -

Altitude Profile

Advertisement - Login to hide

Weather


0- 5 10 15 20 25 30 35+ Temperature / ° C

Clouds and Precipitation
Forecast for 2017-12-16 18:00 UTC. Updated a few seconds ago

Ground ~20,000 ft ~40,000 ft Winds

LDZA

Details ICAO LDZA (ZAG)
Name Zagreb
Region Croatia
Timezone Europe/Zagreb (UTC+1.0)
Stats Elevation 353 ft / 108 m (AMSL)
Location 45.741890° 16.067200°
Runways 1
Magnetic Variation 3.959° E

METAR

LDZA 161700Z 17003KT 8000 MIFG NSC 02/01 Q1011 BECMG 3000 BR

Decode

TAF

TAF LDZA 161125Z 1612/1712 VRB02KT 9999 SCT005 BKN025 TX05/1613Z TNM03/1705Z BECMG 1616/1618 3000 BR TEMPO 1618/1700 1500 BCFG BECMG 1622/1700 0200 FZFG VV001 BECMG 1708/1710 0800 BCFG BKN002 BECMG 1710/1712 4000 BR SCT003 BKN015

Decode

Departure Runways

ID Width Length Bearing (true) Bearing (mag) Surface Threshold Offset Overrun Length
05 148 ft / 45 m 10,659 ft / 3,249 m 46.69° 42.73° Asphalt 0 ft / 0 m 195 ft / 59 m
23 148 ft / 45 m 10,659 ft / 3,249 m 226.71° 222.75° Asphalt 0 ft / 0 m 195 ft / 59 m

LDDU

Details ICAO LDDU (DBV)
Name DUBROVNIK
Region Croatia
Timezone Europe/Zagreb (UTC+1.0)
Stats Elevation 527 ft / 161 m (AMSL)
Location 42.562840° 18.264499°
Runways 1
Magnetic Variation 4.101° E

METAR

LDDU 161700Z 09005KT CAVOK 10/08 Q1007 NOSIG

Decode

TAF

TAF TAF LDDU 161125Z 1612/1712 08006KT 9999 FEW040 TX13/1612Z TN08/1705Z TEMPO 1618/1712 RA PROB30 TEMPO 1618/1705 22015KT TSRA SCT015 FEW030CB BECMG 1709/1711 12010KT

Decode

Destination Runways

ID Width Length Bearing (true) Bearing (mag) Surface Threshold Offset Overrun Length
12 148 ft / 45 m 10,803 ft / 3,293 m 118.30° 114.20° Asphalt 488 ft / 149 m 100 ft / 30 m
30 148 ft / 45 m 10,803 ft / 3,293 m 298.33° 294.23° Asphalt 0 ft / 0 m 100 ft / 30 m

Approach Navaids

Runway Type Ident Frequency Range Bearing (true) Bearing (mag) Slope Elevation
12 Localiser IDU 110.10 MHz 25 nm / 46 km 118.21° 114.11° - 469 ft / 143 m (AMSL)
12 Glidescope IDU 110.10 MHz 25 nm / 46 km 118.21° 114.11° 3.00° 502 ft / 153 m (AMSL)

Popular Alternatives